K8JMX-13 Weather Reports


time (UTC)temp
F
wind
direction
speed
knots
gust
knots
rain 1hr
in
rain 24hr
in
rain mn
in
humidity
%
barometer
mb
20260505201700 70 248 3.5 6.1 0.00 0.00 0.00 54 1006.2
20260505201159 70 210 2.6 7.0 0.00 0.00 0.00 55 1006.2
20260505200656 70 177 3.5 11.3 0.00 0.00 0.00 55 1006.4
20260505200153 70 113 3.5 7.0 0.00 0.00 0.00 55 1006.3
20260505195649 70 192 7.8 11.3 0.00 0.00 0.00 54 1006.3
20260505195146 70 166 4.3 6.1 0.00 0.00 0.00 55 1006.4
20260505194643 70 218 3.5 9.6 0.00 0.00 0.00 55 1006.4
20260505194139 70 227 7.0 9.6 0.00 0.00 0.00 55 1006.5
20260505193636 70 185 1.7 3.5 0.00 0.00 0.00 56 1006.6
20260505193133 70 223 3.5 7.8 0.00 0.00 0.00 55 1006.7
20260505192632 70 216 3.5 5.2 0.00 0.00 0.00 55 1006.7
20260505192129 70 221 6.1 7.8 0.00 0.00 0.00 54 1006.8
20260505191628 70 194 4.3 5.2 0.00 0.00 0.00 55 1006.9
20260505191125 70 230 2.6 7.0 0.00 0.00 0.00 54 1007.1
20260505190621 70 203 5.2 7.0 0.00 0.00 0.00 55 1006.9
20260505190116 70 208 1.7 6.1 0.00 0.00 0.00 55 1006.8
20260505185613 70 203 1.7 5.2 0.00 0.00 0.00 55 1007.1
20260505185109 70 284 1.7 7.0 0.00 0.00 0.00 55 1007.3
20260505184606 69 279 3.5 7.0 0.00 0.00 0.00 55 1007.2
20260505184103 69 164 2.6 7.0 0.00 0.00 0.00 55 1007.4
20260505183559 69 227 1.7 5.2 0.00 0.00 0.00 56 1007.4
20260505183057 69 225 6.1 8.7 0.00 0.00 0.00 55 1007.3
20260505182553 69 269 1.7 6.1 0.00 0.00 0.00 56 1007.2
20260505182050 69 190 1.7 5.2 0.00 0.00 0.00 56 1007.3
20260505181547 69 221 3.5 8.7 0.00 0.00 0.00 56 1007.3
20260505181044 69 193 3.5 6.1 0.00 0.00 0.00 56 1007.3
20260505180540 69 255 3.5 6.1 0.00 0.00 0.00 56 1007.1
20260505180038 69 198 1.7 5.2 0.00 0.00 0.00 56 1007.1
20260505175537 70 238 2.6 3.5 0.00 0.00 0.00 55 1007.0
20260505175034 70 231 4.3 6.1 0.00 0.00 0.00 54 1007.0
20260505174531 70 210 2.6 7.0 0.00 0.00 0.00 54 1007.0
20260505174027 70 232 4.3 7.0 0.00 0.00 0.00 55 1007.2
20260505173525 70 233 3.5 7.0 0.00 0.00 0.00 55 1007.3
20260505173021 70 230 4.3 9.6 0.00 0.00 0.00 54 1007.2
20260505172519 71 236 2.6 5.2 0.00 0.00 0.00 54 1007.2
20260505172015 70 217 1.7 2.6 0.00 0.00 0.00 55 1007.5
20260505171511 71 311 7.0 11.3 0.00 0.00 0.00 53 1007.4
20260505171008 71 275 6.1 7.8 0.00 0.00 0.00 53 1007.3
20260505170504 71 252 2.6 7.8 0.00 0.00 0.00 52 1007.2
20260505165959 71 228 5.2 11.3 0.00 0.00 0.00 52 1007.2
20260505165455 72 327 5.2 9.6 0.00 0.00 0.00 51 1007.3
20260505164951 72 170 3.5 6.1 0.00 0.00 0.00 50 1007.3
20260505164448 72 234 5.2 11.3 0.00 0.00 0.00 50 1007.3
20260505163946 72 190 2.6 3.5 0.00 0.00 0.00 51 1007.2
20260505163444 71 220 3.5 11.3 0.00 0.00 0.00 52 1007.2
20260505162944 71 226 2.6 13.0 0.00 0.00 0.00 51 1007.3
20260505162439 71 226 3.5 7.0 0.00 0.00 0.00 53 1007.5
20260505161936 70 230 7.0 9.6 0.00 0.00 0.00 52 1007.7
20260505161432 71 197 7.0 9.6 0.00 0.00 0.00 52 1007.6
20260505160930 71 252 5.2 9.6 0.00 0.00 0.00 51 1007.8
20260505160428 70 178 3.5 6.1 0.00 0.00 0.00 53 1007.5
20260505152904 68 216 3.5 7.0 0.00 0.00 0.00 57 1007.5
20260505152401 68 221 5.2 6.1 0.00 0.00 0.00 58 1007.4
20260505151855 68 221 5.2 7.8 0.00 0.00 0.00 58 1007.4
20260505151352 67 185 2.6 3.5 0.00 0.00 0.00 60 1007.2
20260505150849 66 249 0.9 3.5 0.00 0.00 0.00 62 1007.2
20260505150347 66 216 3.5 3.5 0.00 0.00 0.00 62 1007.4
20260505140310 64 227 5.2 5.2 0.00 0.00 0.00 67 1006.8
20260505130234 61 212 2.6 2.6 0.00 0.00 0.00 73 1007.0
20260505124724 61 183 3.5 5.2 0.00 0.00 0.00 73 1006.9
20260505124221 61 199 1.7 2.6 0.00 0.00 0.00 73 1006.8
20260505123717 61 244 1.7 2.6 0.00 0.00 0.00 73 1006.9
20260505123214 60 197 1.7 2.6 0.00 0.00 0.00 73 1006.8
20260505122710 60 227 4.3 5.2 0.00 0.00 0.00 73 1006.7
20260505122208 60 180 1.7 2.6 0.00 0.00 0.00 73 1006.4
20260505121704 60 180 1.7 3.5 0.00 0.00 0.00 73 1006.4
20260505121201 60 217 2.6 2.6 0.00 0.00 0.00 73 1006.1
20260505120658 60 98 0.0 2.6 0.00 0.00 0.00 73 1006.2
20260505120154 60 176 2.6 3.5 0.00 0.00 0.00 73 1005.9
20260505115652 60 212 2.6 3.5 0.00 0.00 0.00 73 1005.9
20260505115151 60 140 1.7 2.6 0.00 0.00 0.00 73 1006.1
20260505114648 60 228 2.6 2.6 0.00 0.00 0.00 73 1005.9
20260505114144 60 207 3.5 5.2 0.00 0.00 0.00 72 1005.9
20260505113640 60 182 0.9 2.6 0.00 0.00 0.00 72 1006.1
20260505113137 60 172 2.6 3.5 0.00 0.00 0.00 72 1006.3
20260505112633 60 190 1.7 2.6 0.00 0.00 0.00 72 1006.1
20260505112132 61 144 0.9 1.7 0.00 0.00 0.00 71 1006.4
20260505111631 61 316 0.9 2.6 0.00 0.00 0.00 71 1006.3
20260505111127 61 98 0.0 1.7 0.00 0.00 0.00 70 1006.4
20260505110624 61 273 4.3 6.1 0.00 0.00 0.00 70 1006.5
20260505110121 62 208 1.7 6.1 0.00 0.00 0.00 69 1006.6
20260505102057 63 234 3.5 6.1 0.00 0.00 0.00 65 1006.2
20260505101555 63 219 1.7 2.6 0.00 0.00 0.00 65 1006.3
20260505101051 63 215 1.7 5.2 0.00 0.00 0.00 64 1006.4
20260505100548 63 265 1.7 3.5 0.00 0.00 0.00 64 1006.1
20260505100045 63 161 1.7 3.5 0.00 0.00 0.00 64 1006.3
20260505095541 63 286 1.7 3.5 0.00 0.00 0.00 64 1006.2
20260505095037 63 242 1.7 1.7 0.00 0.00 0.00 63 1006.1
20260505094534 63 221 0.9 2.6 0.00 0.00 0.00 63 1006.1
20260505094030 63 75 1.7 2.6 0.00 0.00 0.00 63 1006.1
20260505093527 63 223 0.9 3.5 0.00 0.00 0.00 62 1006.2
20260505093024 64 142 0.9 3.5 0.00 0.00 0.00 62 1005.8
20260505092521 64 264 3.5 5.2 0.00 0.00 0.00 61 1006.1
20260505092020 64 275 1.7 7.0 0.00 0.00 0.00 61 1005.9
20260505091516 64 219 2.6 3.5 0.00 0.00 0.00 61 1005.9
20260505091014 64 246 2.6 6.1 0.00 0.00 0.00 60 1005.8
20260505090512 64 227 3.5 3.5 0.00 0.00 0.00 60 1005.9
20260505090010 64 237 3.5 5.2 0.00 0.00 0.00 59 1005.9
20260505085508 65 203 3.5 3.5 0.00 0.00 0.00 59 1005.8
20260505085006 65 229 2.6 5.2 0.00 0.00 0.00 59 1005.7
20260505084504 65 197 2.6 6.1 0.00 0.00 0.00 58 1005.8
20260505084001 66 247 1.7 3.5 0.00 0.00 0.00 58 1005.5
20260505083458 66 259 3.5 7.8 0.00 0.00 0.00 57 1005.3
20260505082954 66 239 4.3 7.8 0.00 0.00 0.00 56 1005.3
20260505082450 66 263 7.0 8.7 0.00 0.00 0.00 56 1005.3
20260505081947 65 213 2.6 3.5 0.00 0.00 0.00 58 1005.1
20260505081444 65 295 1.7 6.1 0.00 0.00 0.00 58 1005.1
20260505080940 65 172 2.6 5.2 0.00 0.00 0.00 58 1004.9
20260505080437 65 238 1.7 2.6 0.00 0.00 0.00 59 1005.0
20260505075932 65 201 5.2 8.7 0.00 0.00 0.00 59 1004.5
20260505075429 65 187 3.5 6.1 0.00 0.00 0.00 59 1004.6
20260505074927 65 209 2.6 5.2 0.00 0.00 0.00 59 1004.5
20260505074424 65 211 2.6 3.5 0.00 0.00 0.00 59 1004.6
20260505073921 65 151 3.5 5.2 0.00 0.00 0.00 60 1004.7
20260505073419 65 235 3.5 6.1 0.00 0.00 0.00 59 1004.6
20260505072916 65 197 1.7 5.2 0.00 0.00 0.00 60 1004.6
20260505072411 65 206 2.6 3.5 0.00 0.00 0.00 59 1004.6
20260505071908 65 200 1.7 7.0 0.00 0.00 0.00 59 1004.6
20260505071404 65 209 2.6 3.5 0.00 0.00 0.00 59 1004.7
20260505070903 65 194 1.7 6.1 0.00 0.00 0.00 58 1004.5
20260505070358 66 165 2.6 5.2 0.00 0.00 0.00 59 1004.6
20260505065854 65 160 2.6 3.5 0.00 0.00 0.00 59 1004.5
20260505065351 65 190 0.9 3.5 0.00 0.00 0.00 59 1004.5
20260505064848 65 212 2.6 3.5 0.00 0.00 0.00 59 1004.6
20260505064345 65 157 0.9 3.5 0.00 0.00 0.00 59 1004.5
20260505063843 66 216 2.6 3.5 0.00 0.00 0.00 59 1004.5
20260505063339 66 208 2.6 5.2 0.00 0.00 0.00 59 1004.3
20260505062836 66 208 1.7 5.2 0.00 0.00 0.00 59 1004.3
20260505062333 66 206 1.7 3.5 0.00 0.00 0.00 59 1004.2
20260505061830 65 167 2.6 5.2 0.00 0.00 0.00 59 1004.3
20260505061328 66 183 2.6 3.5 0.00 0.00 0.00 59 1004.4
20260505060825 66 176 1.7 3.5 0.00 0.00 0.00 58 1004.4
20260505060322 66 239 3.5 5.2 0.00 0.00 0.00 58 1004.4
20260505055818 66 221 3.5 7.0 0.00 0.00 0.00 58 1004.3
20260505055314 66 152 1.7 3.5 0.00 0.00 0.00 59 1004.5
20260505054812 65 148 1.7 3.5 0.00 0.00 0.00 59 1004.4
20260505054308 66 178 1.7 5.2 0.00 0.00 0.00 59 1004.5
20260505053807 66 163 1.7 3.5 0.00 0.00 0.00 59 1004.7
20260505053303 66 189 1.7 2.6 0.00 0.00 0.00 59 1004.9
20260505052800 66 158 1.7 3.5 0.00 0.00 0.00 58 1004.7
20260505052257 66 215 3.5 3.5 0.00 0.00 0.00 59 1004.9
20260505051754 66 162 2.6 2.6 0.00 0.00 0.00 59 1004.7
20260505051252 66 204 1.7 2.6 0.00 0.00 0.00 59 1005.0
20260505050750 66 180 1.7 2.6 0.00 0.00 0.00 58 1005.1
20260505050248 67 215 3.5 5.2 0.00 0.00 0.00 58 1005.1
20260505041718 68 193 2.6 5.2 0.00 0.00 0.00 56 1005.0
20260505041215 68 111 1.7 2.6 0.00 0.00 0.00 56 1005.1
20260505040712 68 181 2.6 3.5 0.00 0.00 0.00 56 1005.2
20260505040209 68 107 1.7 2.6 0.00 0.00 0.00 56 1005.1
20260505035706 68 92 1.7 3.5 0.00 0.00 0.00 56 1005.2
20260505035202 68 135 0.9 1.7 0.00 0.00 0.00 56 1005.1
20260505034659 68 159 1.7 3.5 0.00 0.00 0.00 56 1005.2
20260505034156 68 217 1.7 3.5 0.00 0.00 0.00 56 1005.1
20260505033652 68 198 1.7 2.6 0.00 0.00 0.00 56 1005.0
20260505033151 68 162 2.6 6.1 0.00 0.00 0.00 56 1004.9
20260505032648 68 157 0.9 2.6 0.00 0.00 0.00 57 1004.9
20260505032144 68 159 1.7 2.6 0.00 0.00 0.00 56 1004.7
20260505031642 68 189 1.7 1.7 0.00 0.00 0.00 56 1005.0
20260505031138 68 169 2.6 2.6 0.00 0.00 0.00 56 1004.7
20260505030635 68 140 1.7 3.5 0.00 0.00 0.00 56 1005.0
20260505030130 68 188 1.7 3.5 0.00 0.00 0.00 56 1004.6
20260505025627 68 191 1.7 5.2 0.00 0.00 0.00 56 1004.9
20260505025126 68 114 0.9 2.6 0.00 0.00 0.00 56 1004.7
20260505024622 68 182 1.7 2.6 0.00 0.00 0.00 56 1004.7
20260505024120 68 226 3.5 3.5 0.00 0.00 0.00 56 1004.7
20260505023617 69 205 4.3 5.2 0.00 0.00 0.00 55 1004.6
20260505023114 69 160 0.9 3.5 0.00 0.00 0.00 55 1004.7
20260505022612 69 198 1.7 3.5 0.00 0.00 0.00 56 1004.9
20260505022108 68 199 1.7 2.6 0.00 0.00 0.00 57 1004.7
20260505021605 69 176 1.7 1.7 0.00 0.00 0.00 56 1004.6
20260505021102 68 191 0.0 1.7 0.00 0.00 0.00 56 1004.6
20260505020602 68 154 0.9 1.7 0.00 0.00 0.00 57 1004.6
20260505020059 68 160 0.9 2.6 0.00 0.00 0.00 57 1004.6
20260505015556 68 150 0.9 2.6 0.00 0.00 0.00 57 1004.6
20260505015053 68 154 1.7 1.7 0.00 0.00 0.00 57 1004.5
20260505014549 68 154 0.0 1.7 0.00 0.00 0.00 57 1004.6
20260505014047 68 112 0.0 1.7 0.00 0.00 0.00 58 1004.4
20260505013544 68 111 0.9 1.7 0.00 0.00 0.00 57 1004.3
20260505013041 68 108 0.0 0.9 0.00 0.00 0.00 57 1004.5
20260505012539 68 129 0.9 1.7 0.00 0.00 0.00 56 1004.4
20260505012036 68 132 0.9 1.7 0.00 0.00 0.00 56 1004.1
20260505011531 68 101 0.9 0.9 0.00 0.00 0.00 55 1004.3
20260505011029 68 140 0.9 1.7 0.00 0.00 0.00 55 1004.2
20260505010524 69 94 0.0 0.9 0.00 0.00 0.00 55 1004.2
20260505010021 69 148 0.9 1.7 0.00 0.00 0.00 54 1004.2
20260505005517 69 201 0.9 1.7 0.00 0.00 0.00 54 1004.3
20260505005015 69 112 0.9 1.7 0.00 0.00 0.00 53 1004.2
20260505004512 70 140 0.0 1.7 0.00 0.00 0.00 52 1004.2
20260505004008 70 177 1.7 3.5 0.00 0.00 0.00 52 1004.3
20260505003505 70 105 0.9 2.6 0.00 0.00 0.00 52 1004.3
20260505003002 70 172 1.7 1.7 0.00 0.00 0.00 51 1004.3
20260505002458 70 133 0.0 1.7 0.00 0.00 0.00 51 1004.2
20260505001956 71 157 0.9 1.7 0.00 0.00 0.00 50 1004.3
20260505001453 71 180 0.9 3.5 0.00 0.00 0.00 50 1004.2
20260505000950 71 187 0.9 1.7 0.00 0.00 0.00 50 1004.3
20260505000448 71 141 2.6 3.5 0.00 0.00 0.00 49 1004.2
20260504235945 72 190 2.6 5.2 0.00 0.00 0.00 48 1004.1
20260504235442 72 156 2.6 5.2 0.00 0.00 0.00 48 1004.2
20260504234938 73 222 1.7 2.6 0.00 0.00 0.00 48 1004.3
20260504234436 73 226 1.7 5.2 0.00 0.00 0.00 47 1004.3
20260504233932 73 215 3.5 6.1 0.00 0.00 0.00 48 1004.5
20260504233428 73 223 3.5 3.5 0.00 0.00 0.00 48 1004.4
20260504232925 73 183 1.7 5.2 0.00 0.00 0.00 48 1004.3
20260504232422 72 211 2.6 2.6 0.00 0.00 0.00 48 1004.3
20260504231919 72 83 0.0 2.6 0.00 0.00 0.00 49 1004.4
20260504231415 72 165 2.6 6.1 0.00 0.00 0.00 48 1004.4
20260504230912 72 221 1.7 6.1 0.00 0.00 0.00 48 1004.3
20260504230409 72 195 4.3 6.1 0.00 0.00 0.00 48 1004.5
20260504225908 71 207 3.5 7.8 0.00 0.00 0.00 48 1004.6
20260504225404 72 93 1.7 3.5 0.00 0.00 0.00 48 1004.7
20260504224902 72 211 3.5 5.2 0.00 0.00 0.00 48 1005.0
20260504224358 72 213 3.5 6.1 0.00 0.00 0.00 48 1005.1
20260504223855 71 244 4.3 7.8 0.00 0.00 0.00 48 1004.9
20260504223351 72 222 5.2 7.0 0.00 0.00 0.00 48 1005.3
20260504222847 71 218 2.6 3.5 0.00 0.00 0.00 49 1005.1
20260504222344 72 166 1.7 3.5 0.00 0.00 0.00 49 1005.3
20260504221843 71 179 1.7 3.5 0.00 0.00 0.00 49 1005.2
20260504221339 70 223 2.6 5.2 0.00 0.00 0.00 50 1005.4
20260504220837 70 228 2.6 5.2 0.00 0.00 0.00 51 1005.2
20260504220333 70 262 6.1 8.7 0.00 0.00 0.00 50 1005.3
20260504215830 72 197 3.5 3.5 0.00 0.00 0.00 49 1005.2
20260504215326 71 219 2.6 8.7 0.00 0.00 0.00 49 1005.5
20260504214823 71 260 7.8 11.3 0.00 0.00 0.00 48 1005.4
20260504214320 71 251 6.1 9.6 0.00 0.00 0.00 48 1005.4
20260504213816 72 226 5.2 9.6 0.00 0.00 0.00 48 1005.3
20260504213312 72 269 7.8 14.8 0.00 0.00 0.00 46 1005.5
20260504212810 72 191 5.2 12.2 0.00 0.00 0.00 46 1005.4
20260504212306 72 260 7.8 9.6 0.00 0.00 0.00 45 1005.4
20260504211804 73 140 7.0 12.2 0.00 0.00 0.00 45 1005.3
20260504211259 73 283 5.2 9.6 0.00 0.00 0.00 46 1005.2
20260504210757 72 214 3.5 3.5 0.00 0.00 0.00 46 1005.2
20260504210254 72 230 2.6 6.1 0.00 0.00 0.00 46 1005.0
20260504205751 71 205 1.7 5.2 0.00 0.00 0.00 47 1005.1
20260504205249 70 234 2.6 5.2 0.00 0.00 0.00 49 1005.4
20260504204747 70 218 3.5 3.5 0.00 0.00 0.00 49 1005.5
20260504204245 70 225 2.6 5.2 0.00 0.00 0.00 51 1005.4
20260504203744 70 214 3.5 13.9 0.00 0.00 0.00 51 1005.7
20260504203241 70 212 4.3 8.7 0.00 0.00 0.00 51 1005.9
20260504202741 70 199 5.2 7.8 0.00 0.00 0.00 50 1005.9
20260504202238 71 258 6.1 7.8 0.00 0.00 0.00 50 1006.1